[Iaude] MPEC L01: 2024 KN1 [a=1.26,e=0.16,i=7.7,H=25.3]

mpec at cfa.harvard.edu mpec at cfa.harvard.edu
Fri May 31 21:47:43 EDT 2024


M.P.E.C. 2024-L01                                  Issued 2024 June 1, 01:46 UT

     The Minor Planet Electronic Circulars contain information on unusual
         minor planets, routine data on comets and natural satellites,
         and occasional editorial announcements.  They are published
    on behalf of Division F of the International Astronomical Union by the
          Minor Planet Center, Smithsonian Astrophysical Observatory,
                          Cambridge, MA 02138, U.S.A.
			  
             Prepared using the Tamkin Foundation Computer Network

                              MPC at CFA.HARVARD.EDU
            URL https://www.minorplanetcenter.net/    ISSN 1523-6714

                                    2024 KN1                                    


Observations:
     K24K01N  C2024 05 28.49096816 52 27.081+19 54 20.82         21.54GVEL001F51
     K24K01N* C2024 05 31.33620716 56 51.681+18 08 43.27         21.16wXEL001F52
     K24K01N  C2024 05 31.34859816 56 52.408+18 08 13.07         21.44wXEL001F52
     K24K01N  C2024 05 31.36102716 56 53.123+18 07 42.91         21.75wXEL001F52
     K24K01N  C2024 05 31.37346616 56 53.802+18 07 12.44         21.59wXEL001F52
     K24K01N  C2024 05 31.41792516 56 50.484+18 04 49.25         20.8 GVEL001H01
     K24K01N  C2024 05 31.42120016 56 50.690+18 04 40.45         20.9 GVEL001H01
     K24K01N  C2024 05 31.43161516 56 51.362+18 04 12.42         20.9 GVEL001H01
     K24K01N  C2024 05 31.43858016 56 51.825+18 03 53.52         21.3 GVEL001H01
     K24K01N KC2024 05 31.45620616 56 53.224+18 03 09.57               VEL001I52
     K24K01N KC2024 05 31.45828016 56 53.375+18 03 04.26               VEL001I52
     K24K01N  C2024 05 31.48270316 56 59.302+18 02 33.99         21.34GVEL001F52
     K24K01N  C2024 05 31.48335416 56 59.337+18 02 32.18         21.22GVEL001F52

Observer details:
F51 Pan-STARRS 1, Haleakala.  Observers J. Herman, T. Lowe, P. Minguez, A.
    Schultz, I. Smith.  Measurers K. Chambers, T. de Boer, J. Fairlamb, H.
    Gao, M. Huber, C.-C. Lin, E. Magnier, Y. Ramanjooloo, R. Wainscoat, R.
    Weryk.  1.8-m Ritchey-Chretien + CCD.
F52 Pan-STARRS 2, Haleakala.  Observers J. Herman, T. Lowe, P. Minguez, A.
    Schultz, I. Smith.  Measurers K. Chambers, T. de Boer, J. Fairlamb, H.
    Gao, M. Huber, C.-C. Lin, E. Magnier, Y. Ramanjooloo, R. Wainscoat, R.
    Weryk.  1.8-m Ritchey-Chretien + CCD.
H01 Magdalena Ridge Observatory, Socorro.  Observers W. H. Ryan, E. V. Ryan.
    Measurer W. H. Ryan.  2.4-m f/8.9 Ritchey-Chretien + CCD.
I52 Steward Observatory, Mt. Lemmon Station.  Observer V. F. Carvajal.
    Measurers D. Rankin, D. Parrott.  1.00-m f/2.0 prime focus + CCD + CCD.

Orbital elements:
2024 KN1                                                 Earth MOID = 0.0376 AU
Epoch 2024 Mar. 31.0 TT = JDT 2460400.5                 MPC                     
M 295.26832              (2000.0)            P               Q                  
n   0.69889293     Peri.  190.17921     +0.17685029     +0.97516292             
a   1.2575607      Node    90.09903     -0.89338758     +0.21589838             
e   0.1633107      Incl.    7.66302     -0.41301646     -0.04944858             
P   1.41           H   25.37          G   0.15           U   8                  
Residuals in seconds of arc
240528 F51  0.0   0.0     240531 H01  0.0   0.1-    240531 I52  0.1+  0.1+
240531 F52  0.0   0.1+    240531 H01  0.0   0.0     240531 F52  0.0   0.1+
240531 F52  0.1-  0.1-    240531 H01  0.0   0.1+    240531 F52  0.1+  0.0
240531 F52  0.0   0.0     240531 H01  0.0   0.0
240531 F52  0.1-  0.1+    240531 I52  0.0   0.2-

Ephemeris:
2024 KN1                 a,e,i = 1.26, 0.16, 8                   q = 1.0522
Date    TT    R. A. (2000) Decl.     Delta      r    Elong.  Phase     V
2024 05 02    16 24 12.5 +22 30 18   0.1591  1.1241   134.0    40.2    23.2
...
2024 05 17    16 38 55.3 +23 14 19   0.1144  1.0948   134.7    41.0    22.5
...
2024 05 25    16 47 49.8 +21 27 44   0.09245 1.0817   136.5    40.1    22.0
...
2024 05 31    16 56 14.5 +18 23 02   0.07688 1.0733   139.3    38.0    21.5
2024 06 01    16 57 51.7 +17 39 49   0.07438 1.0720   139.9    37.5    21.4
2024 06 02    16 59 33.7 +16 52 12   0.07191 1.0708   140.7    36.9    21.3
...
2024 06 08    17 11 56.5 +10 10 01   0.05799 1.0641   147.0    31.3    20.7
...
2024 06 16    17 38 16.3 -06 31 04   0.04333 1.0574   163.2    16.1    19.5
...
2024 07 01    19 43 10.7 -55 32 02   0.04245 1.0520   145.6    33.1    20.0

                      (Last issue was M.P.E.C. 2024-K155)                       

A. U. Tomatic                (C) Copyright 2024 MPC           M.P.E.C. 2024-L01





More information about the Iaude mailing list